This is the latest recevied weather packets stored in our database for station/object IONIA-WX. If no packets are shown the sender has not sent any weather packets the latest 10 day(s).
| Time | Temp. | Humidity | Pressure | Rain* | Wind** | Luminosity | Snow |
|---|---|---|---|---|---|---|---|
| 1787968820 | 19.44° C | 71% | 990.4 hPa | 0 mm | - | - | - |
| 1787967916 | 19.44° C | 64% | 990 hPa | 0 mm | - | - | - |
| 1787967019 | 20° C | 64% | 990 hPa | 0 mm | - | - | - |
| 1787966117 | 20.56° C | 64% | 990 hPa | 0 mm | - | - | - |
| 1787965220 | 20.56° C | 64% | 990 hPa | 0 mm | - | - | - |
| 1787964316 | 20.56° C | 56% | 990.5 hPa | 0 mm | - | - | - |
| 1787963417 | 21.11° C | 56% | 990.5 hPa | 0 mm | - | - | - |
| 1787962519 | 21.67° C | 56% | 990.5 hPa | 0 mm | - | - | - |
| 1787961623 | 22.22° C | 56% | 990.5 hPa | 0 mm | - | - | - |
| 1787960717 | 22.78° C | 48% | 990 hPa | 0 mm | - | - | - |
| 1787959820 | 22.78° C | 44% | 990.4 hPa | 0 mm | - | - | - |
| 1787958917 | 23.33° C | 44% | 990.4 hPa | 0 mm | - | - | - |
| 1787958018 | 23.89° C | 44% | 990.4 hPa | 0 mm | - | - | - |
| 1787957117 | 23.89° C | 41% | 990.5 hPa | 0 mm | - | - | - |
| 1787956218 | 24.44° C | 29% | 991 hPa | 0 mm | - | - | - |
| 1787955321 | 24.44° C | 29% | 991 hPa | 0 mm | - | - | - |
| 1787954419 | 24.44° C | 29% | 991 hPa | 0 mm | - | - | - |
| 1787953520 | 25° C | 32% | 991.3 hPa | 0 mm | - | - | - |
| 1787952620 | 24.44° C | 32% | 991.4 hPa | 0 mm | - | - | - |
| 1787951721 | 24.44° C | 32% | 991.4 hPa | 0 mm | - | - | - |
| 1787950819 | 24.44° C | 32% | 991.4 hPa | 0 mm | - | - | - |
| 1787949920 | 24.44° C | 40% | 990.7 hPa | 0 mm | - | - | - |
| 1787949018 | 24.44° C | 40% | 990.7 hPa | 0 mm | - | - | - |
| 1787948120 | 24.44° C | 40% | 990.8 hPa | 0 mm | - | - | - |
| 1787947218 | 24.44° C | 43% | 990.9 hPa | 0 mm | - | - | - |
* Rain latest hour (hover to see other rain measurements)
** Current wind speed in m/s (hover to see current wind gust speed)